Retour au catalogue

HULIANWANG DIGUI-37

ActifCommunicationsPO
NORAD 64958·PAYLOAD·🇨🇳 China

Lancé Jul 27, 2025 depuis Taiyuan Satellite Launch Center

Loading…

Prochains Passages (prochaines 24 heures)

TLE

FraisSource: Space-Track

Époque: Sep 14, 2026, 21:58 UTC

1 64958U 25159C   26257.91577830 -.00000066  00000-0 -18751-3 0  9995
2 64958  86.4855 251.9323 0002032  91.4164 268.7203 13.24404090 55002

Suivez HULIANWANG DIGUI-37 en temps réel avec AllMySat

Download on the App Store